Flag for Serbia Weather past 2 weeks in Novi Sad, Serbia

Now
66 °F

Scattered clouds.


Feels Like: 66 °F
Forecast: 63 / 80 °F
Wind: 7 mph from Southwest

Location: Belgrade Surcin Airport

Current Time: Jul 23, 2014 at 10:15:58 AM

Latest Report: Jul 23, 2014 at 8:00 AM


Visibility: N/A

Pressure: 29.80 "Hg

Humidity: 88%

Dew point: 63 °F

Location of Novi SadLocation

Historic Weather in Novi Sad — Graph

°F

Novi Sad temperature yesterday

Maximum temperature yesterday: 84 °F (at 3:30 PM)
Minimum temperature yesterday: 68 °F (at 6:00 AM)
Average temperature yesterday: 75 °F

Past Weeks' High & Low Weather Summary

 TemperatureHumidityPressure
High93 °F (Jul 21, 1:30 PM)100% (Jul 9, 4:00 AM)30.07 "Hg (Jul 9, 4:00 AM)
Low59 °F (Jul 10, 4:30 AM)34% (Jul 21, 4:00 PM)29.62 "Hg (Jul 10, 2:00 PM)
Average72 °F73%29.87 "Hg
* Reported Jul 8 8:00 AM — Jul 23 8:00 AM, Novi Sad, Weather by CustomWeather, © 2014

Note: Actual official high and low records may vary slightly from our data, if they occured in-between our weather recording intervals... More about our weather records

Advertising

Novi Sad weather history for previous 24 hours

 ConditionsComfort  
Time TempWeatherWind HumidityBarometerVisibility
8:00 AM
Jul 23
66 °FScattered clouds.7 mph88%29.80 "HgN/A
7:30 AM66 °FScattered clouds.6 mph88%29.77 "HgN/A
7:00 AM64 °FScattered clouds.6 mph94%29.77 "HgN/A
6:30 AM64 °FScattered clouds.5 mph94%29.77 "HgN/A
6:00 AM64 °FPassing clouds.5 mph94%29.77 "HgN/A
5:30 AM64 °FPassing clouds.6 mph94%29.77 "HgN/A
4:00 AM64 °FClear.6 mph94%29.77 "Hg10 mi
3:30 AM64 °FClear.6 mph94%29.77 "Hg10 mi
3:00 AM64 °FClear.5 mph88%29.77 "Hg10 mi
2:30 AM64 °FPassing clouds.7 mph94%29.77 "HgN/A
2:00 AM64 °FThundershowers. Passing clouds.7 mph94%29.77 "HgN/A
7:00 PM
Jul 22
75 °FThunderstorms. Scattered clouds.7 mph65%29.71 "HgN/A
6:30 PM77 °FThunderstorms. Scattered clouds.12 mph61%29.71 "HgN/A
6:00 PM79 °FScattered clouds.10 mph65%29.71 "HgN/A
5:30 PM81 °FScattered clouds.9 mph62%29.71 "HgN/A
5:00 PM82 °FScattered clouds.8 mph51%29.68 "HgN/A
4:30 PM84 °FScattered clouds.10 mph51%29.71 "HgN/A
4:00 PM82 °FScattered clouds.10 mph55%29.71 "HgN/A
3:30 PM84 °FPartly sunny.6 mph51%29.71 "HgN/A
3:00 PM82 °FPartly sunny.5 mph51%29.74 "HgN/A
2:00 PM82 °FPartly sunny.3 mph51%29.74 "HgN/A
1:30 PM82 °FPartly sunny.7 mph55%29.74 "HgN/A
1:00 PM82 °FPartly sunny.6 mph48%29.74 "HgN/A
12:30 PM81 °FScattered clouds.3 mph58%29.74 "HgN/A
12:00 PM81 °FScattered clouds.5 mph58%29.77 "HgN/A
11:30 AM79 °FScattered clouds.7 mph65%29.77 "HgN/A
11:00 AM79 °FScattered clouds.8 mph61%29.77 "HgN/A
10:30 AM75 °FScattered clouds.8 mph69%29.77 "HgN/A
10:00 AM77 °FPassing clouds.10 mph65%29.77 "HgN/A
Weather by CustomWeather, © 2014

See weather overviewHow to use our weather pages